• In Deutschland
  • Länderverzeichnis
  • Für 7 Tage
  • Wassertemperatur
  • Satellitenkarten
  • Wetterkarte
  • Widgets
  • user-avatar
    Anmelden

    Stündliche Wetter Igls

    Heute, 24 September, Sonntag

    Zeit Temperatur Niederschläge Wind Luftdruck Luftfeuchtigkeit
    00:00 +11°C° 0 mm 1 m/S 687 mmHg 96%
    01:00 +11°C° 0 mm 1 m/S 686 mmHg 96%
    02:00 +11°C° 0,2 mm 1 m/S 686 mmHg 96%
    03:00 +10°C° 0,2 mm 1 m/S 686 mmHg 96%
    04:00 +10°C° 0,2 mm 1 m/S 686 mmHg 96%
    05:00 +11°C° 0,3 mm 1 m/S 686 mmHg 95%
    06:00 +11°C° 0,3 mm 1 m/S 686 mmHg 95%
    07:00 +11°C° 0,3 mm 1 m/S 686 mmHg 95%
    08:00 +12°C° 0,2 mm 1 m/S 687 mmHg 90%
    09:00 +13°C° 0,2 mm 1 m/S 687 mmHg 85%
    10:00 +14°C° 0,2 mm 1 m/S 687 mmHg 80%
    11:00 +14°C° 0,2 mm 1 m/S 687 mmHg 77%
    12:00 +15°C° 0,2 mm 1 m/S 687 mmHg 75%
    13:00 +15°C° 0,2 mm 2 m/S 687 mmHg 72%
    14:00 +15°C° 0,2 mm 2 m/S 687 mmHg 74%
    15:00 +15°C° 0,2 mm 2 m/S 686 mmHg 75%
    16:00 +14°C° 0,2 mm 2 m/S 686 mmHg 77%
    17:00 +13°C° 0,1 mm 1 m/S 686 mmHg 82%
    18:00 +12°C° 0,1 mm 1 m/S 686 mmHg 87%
    19:00 +10°C° 0,1 mm 1 m/S 686 mmHg 92%
    20:00 +10°C° 0 mm 1 m/S 686 mmHg 93%
    21:00 +9°C° 0 mm 1 m/S 686 mmHg 93%
    22:00 +9°C° 0 mm 1 m/S 686 mmHg 93%
    23:00 +9°C° 0 mm 1 m/S 686 mmHg 93%

    Morgen, 25 September, Montag

    Zeit Temperatur Niederschläge Wind Luftdruck Luftfeuchtigkeit
    00:00 +8°C° 0 mm 1 m/S 686 mmHg 93%
    01:00 +8°C° 0 mm 1 m/S 686 mmHg 92%
    02:00 +8°C° 0 mm 1 m/S 686 mmHg 91%
    03:00 +8°C° 0 mm 1 m/S 686 mmHg 90%
    04:00 +8°C° 0 mm 1 m/S 685 mmHg 89%
    05:00 +8°C° 0 mm 1 m/S 686 mmHg 87%
    06:00 +8°C° 0 mm 1 m/S 686 mmHg 86%
    07:00 +8°C° 0 mm 1 m/S 686 mmHg 84%
    08:00 +10°C° 0 mm 0 m/S 686 mmHg 77%
    09:00 +12°C° 0 mm 0 m/S 686 mmHg 70%
    10:00 +15°C° 0 mm 0 m/S 687 mmHg 63%
    11:00 +15°C° 0 mm 0 m/S 686 mmHg 60%
    12:00 +16°C° 0 mm 0 m/S 686 mmHg 56%
    13:00 +19°C° 0 mm 1 m/S 686 mmHg 53%
    14:00 +18°C° 0 mm 1 m/S 686 mmHg 56%
    15:00 +18°C° 0 mm 1 m/S 686 mmHg 59%
    16:00 +16°C° 0 mm 1 m/S 685 mmHg 62%
    17:00 +14°C° 0 mm 1 m/S 685 mmHg 70%
    18:00 +11°C° 0 mm 0 m/S 685 mmHg 77%
    19:00 +9°C° 0 mm 0 m/S 685 mmHg 85%
    20:00 +9°C° 0 mm 1 m/S 686 mmHg 85%
    21:00 +9°C° 0 mm 1 m/S 686 mmHg 85%
    22:00 +9°C° 0 mm 1 m/S 686 mmHg 86%
    23:00 +9°C° 0 mm 1 m/S 686 mmHg 86%

    übermorgen, 26 September, Dienstag

    Zeit Temperatur Niederschläge Wind Luftdruck Luftfeuchtigkeit
    00:00 +8°C° 0 mm 1 m/S 686 mmHg 85%
    01:00 +8°C° 0 mm 1 m/S 686 mmHg 85%
    02:00 +8°C° 0 mm 1 m/S 686 mmHg 85%
    03:00 +8°C° 0 mm 1 m/S 686 mmHg 85%
    04:00 +8°C° 0 mm 1 m/S 686 mmHg 85%
    05:00 +9°C° 0 mm 1 m/S 686 mmHg 84%
    06:00 +9°C° 0 mm 1 m/S 687 mmHg 84%
    07:00 +10°C° 0 mm 1 m/S 687 mmHg 83%
    08:00 +12°C° 0 mm 1 m/S 687 mmHg 77%
    09:00 +13°C° 0 mm 1 m/S 687 mmHg 72%
    10:00 +15°C° 0 mm 1 m/S 688 mmHg 66%
    11:00 +16°C° 0 mm 1 m/S 688 mmHg 64%
    12:00 +18°C° 0 mm 1 m/S 688 mmHg 62%
    13:00 +19°C° 0 mm 1 m/S 688 mmHg 60%
    14:00 +18°C° 0 mm 1 m/S 688 mmHg 63%
    15:00 +18°C° 0 mm 1 m/S 688 mmHg 65%
    16:00 +18°C° 0 mm 1 m/S 688 mmHg 68%
    17:00 +14°C° 0 mm 1 m/S 688 mmHg 75%
    18:00 +12°C° 0 mm 1 m/S 687 mmHg 83%
    19:00 +9°C° 0 mm 0 m/S 687 mmHg 90%
    20:00 +10°C° 0 mm 1 m/S 688 mmHg 90%
    21:00 +10°C° 0 mm 1 m/S 688 mmHg 90%
    22:00 +10°C° 0 mm 1 m/S 688 mmHg 90%
    23:00 +9°C° 0 mm 1 m/S 688 mmHg 89%

    27 September, Mittwoch

    Zeit Temperatur Niederschläge Wind Luftdruck Luftfeuchtigkeit
    00:00 +9°C° 0 mm 1 m/S 688 mmHg 88%
    01:00 +9°C° 0 mm 1 m/S 688 mmHg 87%
    02:00 +9°C° 0 mm 1 m/S 688 mmHg 87%
    03:00 +8°C° 0 mm 1 m/S 688 mmHg 86%
    04:00 +8°C° 0 mm 1 m/S 688 mmHg 86%
    05:00 +8°C° 0 mm 1 m/S 688 mmHg 84%
    06:00 +9°C° 0 mm 1 m/S 689 mmHg 83%
    07:00 +9°C° 0 mm 1 m/S 689 mmHg 82%
    08:00 +12°C° 0 mm 1 m/S 689 mmHg 75%
    09:00 +14°C° 0 mm 1 m/S 690 mmHg 68%
    10:00 +18°C° 0 mm 1 m/S 690 mmHg 62%
    11:00 +19°C° 0 mm 1 m/S 690 mmHg 60%
    12:00 +20°C° 0 mm 1 m/S 690 mmHg 58%
    13:00 +20°C° 0 mm 1 m/S 690 mmHg 56%
    14:00 +20°C° 0 mm 1 m/S 690 mmHg 59%
    15:00 +19°C° 0 mm 1 m/S 690 mmHg 62%
    16:00 +19°C° 0 mm 1 m/S 690 mmHg 64%
    17:00 +16°C° 0 mm 1 m/S 690 mmHg 73%
    18:00 +12°C° 0 mm 0 m/S 689 mmHg 82%
    19:00 +10°C° 0 mm 0 m/S 689 mmHg 91%
    20:00 +10°C° 0 mm 0 m/S 690 mmHg 91%
    21:00 +10°C° 0 mm 1 m/S 690 mmHg 91%
    22:00 +10°C° 0 mm 1 m/S 690 mmHg 91%
    23:00 +10°C° 0 mm 1 m/S 690 mmHg 89%

    28 September, Donnerstag

    Zeit Temperatur Niederschläge Wind Luftdruck Luftfeuchtigkeit
    00:00 +10°C° 0 mm 1 m/S 690 mmHg 88%
    01:00 +10°C° 0 mm 1 m/S 690 mmHg 87%
    02:00 +9°C° 0 mm 1 m/S 690 mmHg 87%
    03:00 +9°C° 0 mm 1 m/S 690 mmHg 86%
    04:00 +9°C° 0 mm 1 m/S 690 mmHg 86%
    05:00 +10°C° 0 mm 1 m/S 690 mmHg 85%
    06:00 +10°C° 0 mm 1 m/S 691 mmHg 84%
    07:00 +10°C° 0 mm 1 m/S 691 mmHg 83%
    08:00 +13°C° 0 mm 1 m/S 691 mmHg 75%
    09:00 +16°C° 0 mm 1 m/S 692 mmHg 67%
    10:00 +19°C° 0 mm 1 m/S 693 mmHg 59%
    11:00 +20°C° 0 mm 1 m/S 693 mmHg 57%
    12:00 +21°C° 0 mm 1 m/S 692 mmHg 55%
    13:00 +21°C° 0 mm 1 m/S 692 mmHg 53%
    14:00 +20°C° 0 mm 2 m/S 692 mmHg 56%
    15:00 +19°C° 0 mm 2 m/S 692 mmHg 59%
    16:00 +19°C° 0 mm 2 m/S 692 mmHg 62%
    17:00 +17°C° 0 mm 2 m/S 692 mmHg 72%
    18:00 +14°C° 0 mm 1 m/S 691 mmHg 82%
    19:00 +12°C° 0 mm 1 m/S 691 mmHg 92%
    20:00 +11°C° 0 mm 1 m/S 691 mmHg 92%
    21:00 +11°C° 0 mm 1 m/S 691 mmHg 93%
    22:00 +10°C° 0 mm 1 m/S 692 mmHg 94%
    23:00 +10°C° 0 mm 1 m/S 691 mmHg 93%

    29 September, Freitag

    Zeit Temperatur Niederschläge Wind Luftdruck Luftfeuchtigkeit
    00:00 +10°C° 0 mm 1 m/S 691 mmHg 92%
    01:00 +10°C° 0 mm 1 m/S 691 mmHg 91%
    02:00 +9°C° 0 mm 1 m/S 691 mmHg 89%
    03:00 +9°C° 0 mm 1 m/S 691 mmHg 88%
    04:00 +9°C° 0 mm 1 m/S 691 mmHg 86%
    05:00 +9°C° 0 mm 1 m/S 691 mmHg 82%
    06:00 +10°C° 0 mm 1 m/S 691 mmHg 79%
    07:00 +10°C° 0 mm 1 m/S 691 mmHg 75%
    08:00 +13°C° 0 mm 1 m/S 691 mmHg 65%
    09:00 +16°C° 0 mm 1 m/S 691 mmHg 55%
    10:00 +18°C° 0 mm 0 m/S 692 mmHg 45%
    11:00 +19°C° 0 mm 0 m/S 692 mmHg 44%
    12:00 +21°C° 0 mm 1 m/S 691 mmHg 42%
    13:00 +22°C° 0 mm 1 m/S 691 mmHg 40%
    14:00 +22°C° 0 mm 1 m/S 691 mmHg 44%
    15:00 +21°C° 0 mm 1 m/S 690 mmHg 47%
    16:00 +21°C° 0 mm 1 m/S 690 mmHg 51%
    17:00 +18°C° 0 mm 1 m/S 690 mmHg 62%
    18:00 +14°C° 0 mm 1 m/S 689 mmHg 73%
    19:00 +11°C° 0 mm 1 m/S 689 mmHg 84%
    20:00 +11°C° 0 mm 1 m/S 689 mmHg 83%
    21:00 +11°C° 0 mm 1 m/S 689 mmHg 82%
    22:00 +11°C° 0 mm 1 m/S 689 mmHg 81%
    23:00 +11°C° 0 mm 1 m/S 688 mmHg 80%
    Mehr zeigen